www.pogodaiklimat.ru

Погода и климат >> Архив погоды >> Бельгия >> Эрнаж


ПОГОДА в Эрнаже

  • Прогноз погоды в Эрнаже
  • Монитор погоды в Эрнаже

АРХИВ ПОГОДЫ в Эрнаже

Время (UTC), дата Ветер
(напр.,м/с)
 
Видим.   Явления Облачность Т
(С)
Тd
(С)
f
(%)
Тe
(С)
Тes
(С)
Комфортность P
(гПа)
Po
(гПа)
Тmin
(С)
Tmax
(С)
R
(мм)
R24
(мм)
S
(см)
07 12.05 С 4 н/о н/о +8.1 +4.5 78 +5 +5 1033.9 1014.0 69
08 12.05 С 4 н/о н/о +8.2 +3.5 72 +5 +5 1034.5 1014.6 83
09 12.05 С 5
{7}
н/о н/о +9.6 +1.8 58 +7 +7 1034.9 1015.1 124
10 12.05 СВ 5 н/о н/о +10.9 +1.7 53 +8 +8 1034.8 1015.1 234
11 12.05 С 4 н/о н/о +11.2 +2.0 53 +9 +9 1035.1 1015.4 202
12 12.05 С 3 н/о н/о +11.4 +2.2 53 +10 +10 1035.1 1015.4 141
13 12.05 СЗ 5 н/о н/о +12.2 +2.2 50 +10 +10 1035.2 1015.5 158
14 12.05 С 4 н/о н/о +12.1 +3.0 54 +10 +10 1035.5 1015.9 114
15 12.05 С 4 н/о н/о +12.3 +3.2 54 +11 +11 1035.7 1016.1 76
16 12.05 С 5 н/о н/о +12.7 +2.6 50 +11 +11 1035.9 1016.3 95
17 12.05 С 6 н/о н/о +12.9 +3.6 53 +11 +11 1035.9 1016.3 76
18 12.05 С 4
{8}
н/о н/о +11.8 +3.6 57 +10 +10 1036.4 1016.7 +13.2 25
19 12.05 С 4 н/о н/о +10.5 +3.3 61 +8 +8 1036.8 1017.0 12
20 12.05 С 4 н/о н/о +9.5 +3.4 66 +7 +7 1037.3 1017.5 1
21 12.05 С 4 н/о н/о +7.4 +3.9 78 +4 +4 1038.0 1018.0
22 12.05 С 4 н/о н/о +6.4 +3.8 83 +3 +3 1038.3 1018.2
23 12.05 С 5 н/о н/о +6.8 +3.7 81 +3 +3 1038.7 1018.7
00 13.05 С 5 н/о н/о +6.2 +3.2 81 +2 +2 1038.9 1018.8 144
01 13.05 С 4 н/о н/о +5.4 +2.9 84 +1 +1 1038.9 1018.8
02 13.05 СВ 3 н/о н/о +4.6 +2.7 87 +1 +1 1039.0 1018.8
03 13.05 СВ 3 н/о н/о +4.1 +2.6 90 0 0 1039.1 1018.8
04 13.05 СВ 4 н/о н/о +3.8 +2.3 90 -1 -1 1039.3 1019.0
05 13.05 СВ 3 н/о н/о +3.8 +2.7 93 -0 -0 1039.5 1019.1 5
06 13.05 СВ 4
{6}
н/о н/о +5.3 +3.3 87 +1 +1 1039.8 1019.6 +3.3 32
07 13.05 СВ 4 н/о н/о +6.8 +3.8 81 +3 +3 1039.7 1019.6 80
08 13.05 В 4 н/о н/о +8.9 +4.0 71 +6 +6 1039.9 1020.0 135
09 13.05 СВ 5
{7}
н/о н/о +10.2 +2.6 59 +7 +7 1039.8 1020.0 181
10 13.05 СВ 6 н/о н/о +11.5 +0.2 46 +9 +9 1039.5 1019.7 218
11 13.05 СВ 6 н/о н/о +12.9 -1.0 38 +11 +11 1039.3 1019.6 245
12 13.05 СВ 7 н/о н/о +13.6 -2.2 33 +12 +12 1038.9 1019.3 256
13 13.05 СВ 5 н/о н/о +14.3 -2.0 32 +13 +13 1038.3 1018.7 250
14 13.05 СВ 5 н/о н/о +14.7 -2.4 31 +13 +13 1037.8 1018.3 232
15 13.05 С 5 н/о н/о +14.9 -3.2 29 +14 +14 1037.3 1017.8 203
16 13.05 СВ 6 н/о н/о +14.9 -4.1 27 +14 +14 1036.9 1017.4 164
17 13.05 СВ 6 н/о н/о +14.7 -3.0 29 +13 +13 1036.5 1017.0 118
18 13.05 СВ 5
{11}
н/о н/о +13.9 -3.1 31 +12 +12 1036.4 1016.9 +15.1 65
19 13.05 СВ 3 н/о н/о +12.8 -1.2 38 +12 +12 1036.4 1016.7 23
20 13.05 СВ 3 н/о н/о +11.0 -1.0 43 +10 +10 1036.5 1016.7 1
21 13.05 СВ 3 н/о н/о +9.3 -0.7 50 +7 +7 1036.7 1016.9
22 13.05 СВ 3 н/о н/о +8.5 -0.6 53 +6 +6 1036.7 1016.7
23 13.05 СВ 3 н/о н/о +8.1 +2.0 65 +6 +6 1036.4 1016.4
00 14.05 С 4 н/о н/о +6.3 +2.7 78 +3 +3 1036.3 1016.3 221
01 14.05 С 4 н/о н/о +6.4 +2.6 77 +3 +3 1036.3 1016.2
02 14.05 СВ 4 н/о н/о +6.4 +1.5 71 +3 +3 1035.9 1015.8
03 14.05 СВ 4 н/о н/о +5.4 +1.3 75 +2 +2 1035.8 1015.7
04 14.05 СВ 4 н/о н/о +4.5 +1.2 79 0 0 1035.9 1015.7
05 14.05 СВ 4 н/о н/о +4.9 +1.6 79 +1 +1 1035.6 1015.4 6
06 14.05 СВ 5
{7}
н/о н/о +6.2 +2.2 76 +2 +2 1035.5 1015.4 +4.4 36
07 14.05 СВ 6 н/о н/о +7.2 +2.7 73 +3 +3 1035.0 1015.1 76
08 14.05 СВ 5 н/о н/о +9.3 +3.2 66 +6 +6 1034.9 1015.0 133
09 14.05 СВ 6
{9}
н/о н/о +10.2 +2.3 58 +7 +7 1034.7 1014.9 179
10 14.05 СВ 7 н/о н/о +11.5 +1.9 52 +9 +9 1033.9 1014.2 215
11 14.05 СВ 6 н/о н/о +12.9 +1.5 46 +11 +11 1033.2 1013.6 240
12 14.05 СВ 6 н/о н/о +13.6 +1.9 45 +12 +12 1032.6 1013.0 251
13 14.05 СВ 7 н/о н/о +14.3 +0.7 39 +12 +12 1031.9 1012.4 247
14 14.05 СВ 7 н/о н/о +14.8 +1.5 40 +13 +13 1031.1 1011.7 229
15 14.05 СВ 6 н/о н/о +15.3 +2.1 41 +14 +14 1030.4 1011.1 199
16 14.05 СВ 6 н/о н/о +15.0 +1.3 39 +14 +14 1029.6 1010.3 144
17 14.05 СВ 6 н/о н/о +15.0 +1.0 39 +14 +14 1029.5 1010.1 111
18 14.05 СВ 5
{11}
н/о н/о +14.2 +0.8 40 +13 +13 1029.2 1009.8 +15.3 62
19 14.05 СВ 4 н/о н/о +12.9 +0.9 44 +11 +11 1029.3 1009.8 21
20 14.05 СВ 3 н/о н/о +11.0 +1.4 52 +9 +9 1029.3 1009.6 1
21 14.05 СВ 3 н/о н/о +10.3 +1.5 54 +9 +9 1029.3 1009.7
22 14.05 СВ 3 н/о н/о +8.7 +1.6 61 +7 +7 1029.3 1009.5
23 14.05 СВ 3 н/о н/о +6.7 +1.5 69 +4 +4 1029.2 1009.2
00 15.05 СВ 3 н/о н/о +8.2 +1.2 61 +6 +6 1028.8 1008.9 215
01 15.05 СВ 3 н/о н/о +6.5 +1.6 71 +4 +4 1028.5 1008.6
02 15.05 СВ 3 н/о н/о +6.6 +1.4 69 +4 +4 1028.1 1008.2
03 15.05 СВ 2 н/о н/о +4.4 +0.7 77 +2 +2 1028.4 1008.3
04 15.05 СВ 3 н/о н/о +5.1 +1.9 80 +2 +2 1028.3 1008.3
05 15.05 СВ 2 н/о н/о +5.1 +2.0 80 +3 +3 1028.3 1008.3 6
06 15.05 СВ 2
{5}
н/о н/о +8.0 +3.0 71 +6 +6 1028.0 1008.2 +3.8 36
07 15.05 СВ 2 н/о н/о +10.1 +2.9 61 +9 +9 1027.9 1008.2 84
08 15.05 С 2 н/о н/о +12.0 +2.4 52 +11 +11 1027.5 1008.0 135
09 15.05 СВ 5
{7}
н/о н/о +13.5 +0.1 40 +12 +12 1027.2 1007.8 179
10 15.05 СВ 6 н/о н/о +13.8 +0.5 40 +12 +12 1026.5 1007.1 214
11 15.05 СВ 6 н/о н/о +14.8 +0.2 37 +13 +13 1025.8 1006.5 238
12 15.05 СВ 6 н/о н/о +15.3 +0.2 36 +14 +14 1025.3 1006.0 252
13 15.05 СВ 6 н/о н/о +15.7 -1.3 31 +15 +15 1024.7 1005.5 249
14 15.05 СВ 6 н/о н/о +16.2 -5.1 23 +15 +15 1024.3 1005.1 233
15 15.05 СВ 5 н/о н/о +16.0 -5.9 22 +15 +15 1023.7 1004.5 206
16 15.05 СВ 6 н/о н/о +16.2 -5.0 23 +15 +15 1023.3 1004.1 165
17 15.05 СВ 5 н/о н/о +15.6 -4.1 25 +15 +15 1023.1 1003.9 118
18 15.05 СВ 4
{11}
н/о н/о +14.7 -3.5 28 +14 +14 1023.1 1003.8 +16.4 69
19 15.05 СВ 3 н/о н/о +13.2 -1.9 35 +12 +12 1023.0 1003.7 25
20 15.05 СВ 3 н/о н/о +11.1 -1.2 42 +10 +10 1023.2 1003.7 2
21 15.05 СВ 3 н/о н/о +10.4 -1.0 45 +9 +9 1023.1 1003.5
22 15.05 СВ 3 н/о н/о +9.5 -0.3 50 +8 +8 1022.8 1003.2
23 15.05 СВ 3 н/о н/о +8.9 -0.1 53 +7 +7 1022.5 1002.8
00 16.05 СВ 3 н/о н/о +8.0 +0.3 58 +6 +6 1021.9 1002.3 221
01 16.05 СВ 3 н/о н/о +7.7 +0.3 59 +5 +5 1021.5 1001.8
02 16.05 СВ 2 н/о н/о +6.1 +0.4 67 +4 +4 1021.4 1001.6
03 16.05 СВ 2 н/о н/о +5.1 +0.5 72 +3 +3 1021.5 1001.6
04 16.05 СВ 3 н/о н/о +5.1 +1.0 75 +2 +2 1021.2 1001.3
05 16.05 СВ 2 н/о н/о +4.7 +1.7 81 +2 +2 1021.0 1001.1 5
06 16.05 СВ 2
{5}
н/о н/о +7.8 +2.2 68 +6 +6 1020.6 1000.9 +4.0 36
07 16.05 СВ 3 н/о н/о +10.2 +2.1 57 +8 +8 1020.4 1000.9 83
08 16.05 СВ 3 н/о н/о +11.8 +1.9 51 +10 +10 1019.8 1000.4 133
09 16.05 СВ 4
{7}
н/о н/о +13.0 +2.3 48 +12 +12 1019.2 999.9 170
10 16.05 С 5 н/о н/о +13.5 +1.7 45 +12 +12 1018.8 999.6 213
11 16.05 С 5 н/о н/о +13.6 +2.2 46 +12 +12 1018.2 999.0 178
12 16.05 СВ 3 н/о н/о +14.1 +2.7 46 +13 +13 1017.3 998.1 164
13 16.05 СВ 3 н/о н/о +15.6 +2.1 40 +15 +15 1016.5 997.4 239
14 16.05 СВ 5 н/о н/о +15.2 +2.6 43 +14 +14 1015.8 996.7 190
15 16.05 С 6 н/о н/о +15.6 +2.8 42 +14 +14 1015.0 995.9 201
16 16.05 СВ 7 н/о н/о +15.9 +2.6 41 +15 +15 1014.0 995.0 155
17 16.05 СВ 6 н/о н/о +15.6 +4.1 46 +14 +14 1013.5 994.5 113
18 16.05 СВ 4
{9}
н/о н/о +15.0 +4.6 50 +14 +14 1013.1 994.0 +16.1 55
19 16.05 СВ 3 н/о н/о +14.0 +5.5 57 +13 +13 1012.9 993.8 16
20 16.05 СВ 3 н/о н/о +12.3 +5.8 64 +11 +11 1012.9 993.7 1
21 16.05 СВ 3 н/о н/о +11.3 +5.2 66 +10 +10 1012.5 993.2
22 16.05 В 2 н/о н/о +10.1 +5.6 74 +9 +9 1012.1 992.7
23 16.05 В 1 н/о н/о +10.0 +6.3 78 +10 +10 1011.6 992.2
00 17.05 СВ 1 н/о н/о +10.3 +6.1 75 +10 +10 1010.7 991.4 195
01 17.05 С 3 н/о н/о +9.8 +6.4 79 +8 +8 1010.0 990.7
02 17.05 СВ 3 н/о н/о +9.7 +6.3 79 +7 +7 1009.3 990.0
03 17.05 СВ 4 н/о н/о +9.8 +6.1 78 +7 +7 1008.9 989.6
04 17.05 В 3 н/о н/о +8.9 +7.0 88 +6 +6 1008.9 989.5
05 17.05 СВ 3 н/о н/о +8.4 +7.9 97 +6 +6 1008.9 989.5 1
06 17.05 В 2
{5}
н/о н/о +8.7 +8.5 99 +7 +7 1008.7 989.4 +8.4 10
07 17.05 СВ 3 н/о н/о +8.7 +8.4 98 +6 +6 1008.4 989.1 9
08 17.05 СВ 2 н/о н/о +9.1 +8.8 98 +7 +7 1008.2 988.9 20
09 17.05 СВ 3
{4}
н/о н/о +9.6 +8.6 93 +7 +7 1007.8 988.5 44
10 17.05 СВ 3 н/о н/о +9.9 +8.4 90 +8 +8 1007.4 988.2 55
11 17.05 СВ 3 н/о н/о +10.1 +8.7 91 +8 +8 1007.3 988.0 37
12 17.05 СВ 3
{5}
н/о н/о +10.7 +9.0 89 +9 +9 1007.2 988.0 49
13 17.05 В 3 н/о н/о +11.2 +8.6 84 +9 +9 1007.1 988.0 86
14 17.05 С 2 н/о н/о +11.6 +8.2 80 +11 +11 1007.0 987.8 65
15 17.05 СВ 3 н/о н/о +11.9 +8.4 79 +10 +10 1006.8 987.7 47
16 17.05 СВ 3 н/о н/о +11.7 +9.2 85 +10 +10 1006.7 987.6 36
17 17.05 С 2 н/о н/о +11.5 +9.2 86 +10 +10 1006.3 987.2 31
18 17.05 СВ 2
{4}
н/о н/о +11.3 +9.4 88 +10 +10 1006.2 987.1 +12.2 13
19 17.05 СВ 2 н/о н/о +11.1 +9.4 89 +10 +10 1006.3 987.2 8
20 17.05 СВ 2 н/о н/о +10.8 +9.4 91 +9 +9 1006.6 987.4
21 17.05 СВ 2 н/о н/о +10.3 +9.3 94 +9 +9 1006.8 987.6
22 17.05 С 1 н/о н/о +10.1 +9.3 95 +10 +10 1006.7 987.5
23 17.05 СВ 1 н/о н/о +9.8 +9.1 95 +9 +9 1006.7 987.4
00 18.05 В 1 н/о н/о +9.6 +9.1 97 +9 +9 1006.5 987.2 51
01 18.05 В 1 н/о н/о +9.2 +8.8 97 +8 +8 1006.4 987.1
02 18.05 В 2 н/о н/о +10.0 +9.8 99 +8 +8 1006.0 986.8
03 18.05 С 2 н/о н/о +9.9 +9.8 99 +8 +8 1005.9 986.7
04 18.05 СВ 2 н/о н/о +9.8 +9.8 100 +8 +8 1005.9 986.7
05 18.05 СВ 2 н/о н/о +9.7 +9.7 100 +8 +8 1006.1 986.9 1
06 18.05 СВ 2
{3}
н/о н/о +9.9 +9.9 100 +8 +8 1006.4 987.2 +9.1 10
07 18.05 С 1 н/о н/о +10.2 +10.2 100 +10 +10 1006.6 987.4 18
08 18.05 В 2 н/о н/о +10.9 +10.9 100 +9 +9 1006.7 987.6 30
09 18.05 СВ 1
{3}
н/о н/о +12.6 +11.9 95 +13 +13 1006.6 987.6 85
10 18.05 СВ 2 н/о н/о +14.3 +11.5 83 +14 +14 1006.6 987.7 139
11 18.05 СВ 2 н/о н/о +16.3 +10.8 70 +16 +16 1006.3 987.4 214
12 18.05 С 2 н/о н/о +17.6 +10.4 63 +18 +18 1005.9 987.2 232
13 18.05 ЮВ 2 н/о н/о +18.1 +8.9 55 +19 +19 1005.9 987.2 142
14 18.05 С 2 н/о н/о +18.4 +9.5 56 +19 +19 1005.9 987.2 98
15 18.05 З 1 н/о н/о +18.5 +9.1 54 +20 +20 1005.7 987.1 103
16 18.05 З 3 н/о н/о +15.2 +12.0 81 +15 +15 1005.9 987.1 23
17 18.05 СЗ 2 н/о н/о +15.9 +12.7 81 +16 +16 1006.0 987.2 34
18 18.05 В 3
{11}
н/о н/о +15.8 +11.9 78 +15 +15 1006.5 987.7 +18.8 20
19 18.05 В 3 н/о н/о +14.0 +11.2 83 +13 +13 1007.0 988.0 6
20 18.05 ЮВ 1 н/о н/о +13.3 +11.6 89 +13 +13 1007.7 988.6
21 18.05 Ю 2 н/о н/о +13.0 +11.6 91 +12 +12 1007.6 988.5
22 18.05 СЗ 1 н/о н/о +12.7 +11.8 94 +13 +13 1007.4 988.4
23 18.05 З 2 н/о н/о +12.3 +11.6 95 +11 +11 1007.1 988.1
00 19.05 З 1
{5}
н/о н/о +11.8 +11.3 97 +12 +12 1007.0 987.9 116
01 19.05 СЗ 2 н/о н/о +11.9 +11.5 97 +11 +11 1006.8 987.7
02 19.05 СЗ 1 н/о н/о +11.8 +11.6 99 +12 +12 1006.7 987.6
03 19.05 З 1 н/о н/о +11.8 +11.7 99 +12 +12 1006.5 987.4
04 19.05 Ю 1 н/о н/о +11.7 +11.6 99 +11 +11 1006.6 987.6
05 19.05 З 2 н/о н/о +11.9 +11.8 99 +11 +11 1006.5 987.4 1
06 19.05 С 2
{3}
н/о н/о +12.2 +12.2 100 +11 +11 1006.6 987.6 +11.6 5
07 19.05 СЗ 3 н/о н/о +12.4 +12.4 100 +11 +11 1006.7 987.6 10

 

Местоположение метеостанции Эрнаж (Бельгия): широта 50.67 долгота 4.68 высота над уровнем моря 158 м.

В архиве по умолчанию представлена погода в Эрнаже за последнюю неделю. Архивные данные за месяц целиком и за предыдущие месяцы, начиная с января 2011 года, Вы можете получить, выбрав интересующий диапазон дат из раскрывающегося списка и нажав кнопку "Ввод!".


*Определитесь, кто Вы:
робот инопланетянин человек

Внимание! Время в таблицах - всемирное. Для получения местного времени необходимо прибавить поправку, которая равна 1 ч.

Смотрите также архив погоды в соседних городах и на ближайших метеорологических станциях:

Погода в Бовешене (Бельгия) (11 км)
Погода в Уккеле (Бельгия) (27 км)
Погода в Шарлеруа (Бельгия) (28 км)
Погода в Брюсселе (Бельгия) (28 км)
Погода в Шаффене (Бельгия) (46 км)
Погода во Флорене (Бельгия) (49 км)
Погода в Бьерсете (Бельгия) (54 км)
Погода в Антверпене (Бельгия) (61 км)
Погода в Дипенбеке (Бельгия) (61 км)
Погода в Шьевре (Бельгия) (61 км)

Пояснения к столбцам:

Ветер - указаны скорость ветра в м/с - средняя за 10 мин, порывы в срок и между сроками (в фигурных скобках) и направление, откуда дует ветер: С - северный, СВ - северо-восточный, В - восточный, ЮВ - юго-восточный, Ю - южный, ЮЗ - юго-западный, З - западный, СЗ - северо-западный.
Видимость - горизонтальная дальность видимости в метрах или километрах. При видимости от 1 до 10 км при отсутствии осадков обычно наблюдается дымка, при ухудшении видимости до 1 км и менее - туман. В сухую погоду видимость может ухудшаться дымом, пылью или мглою.
Явления - указаны атмосферные явления, наблюдавшиеся в срок или в последний час перед сроком; фигурными скобками обозначены явления, наблюдавшиеся между сроками (за 1-3 часа до срока); квадратными скобками обозначены град или гололедные отложения с указанием их диаметра в мм.
Облачность - указаны через наклонную черту общая и нижняя облачность в баллах и высота нижней границы облаков в метрах; квадратными скобками обозначены формы облаков: Ci - перистые, Cs - перисто-слоистые, Cc - перисто-кучевые, Ac - высококучевые, As - высокослоистые, Sc - слоисто-кучевые, Ns - слоисто-дождевые, Cu - кучевые, Cb - кучево-дождевые. Подробнее классификацию облаков см. в Атласе облаков (PDF).
T - Температура воздуха - температура, измеренная на высоте 2 м над землей.
Td - Температура точки росы - температура, при понижении до которой содержащийся в воздухе водяной пар достигнет насыщения.
f - Относительная влажность воздуха - влажноcть воздуха, измеренная на высоте 2 м над землей.
Te - Эффективная температура - температура, которую ощущает одетый по сезону человек в тени. Характеристика душности погоды. При расчете учитывается влияние влажности воздуха и скорости ветра на теплоощущения человека.
Tes - Эффективная температура на солнце - температура, которую ощущает человек, с поправкой на солнечный нагрев. Характеристика знойности погоды. Зависит от высоты солнца над горизонтом, облачности и скорости ветра. Ночью, в пасмурную погоду, а также при ветре 12 м/с и более поправка равна нулю.
P - Атмосферное давление - приведенное к уровню моря атмосферное давление.
Po - Атмосферное давление - измеренное на уровне метеостанции атмосферное давление.
Tmin - Минимальная температура - минимум температуры воздуха на высоте 2 м над землей.
Tmax - Максимальная температура - максимум температуры воздуха на высоте 2 м над землей.
R - Количество осадков - Количество выпавших осадков за период времени, мм. При наведении курсора мыши на число - период времени, за который выпало указанное количество осадков.
R24 - Количество осадков - Количество выпавших осадков за 24 часа, мм.
S - Снежный покров - Высота снежного покрова, см. При наведении курсора мыши на число - состояние снежного покрова и степень покрытия местности в баллах.